Find Tachys

NORAD ID: 33314 Int'l Des: 2008-040 Owner: REYE Country: D operational
LEOCIRCULARRETROGRADESSO

Live-Position

3D-Globus wird geladen...

Über Tachys

Beschreibung wird geladen...

Nächste Überflüge

Passes for default location (London). Set your location on the main map for personalized predictions.

Höhenverlauf

Loading altitude history...

Zweizeiliger Elementsatz

1 33314U 08040C 26104.84504833 .00001002 00000-0 77828-4 0 9993
2 33314 97.4143 135.4780 0028305 37.4109 322.9081 15.03190397956142
Epoch: 14. Apr. 2026 • Age: 5 hours

Aktueller Status

Höhe 554.9 km
Geschwindigkeit 7.59 km/s
Subsatellitenpunkt -21.57°S, 79.29°W
Startdatum 29. Aug. 2008
Alter 17.6 years
Typ other

Technische Details

Klassifizierung Payload
Masse 152.00 kg
Trockenmasse 140.00 kg
Gesamtmasse 152.00 kg
Länge 1.00 m
Durchmesser 0.80 m
Spannweite 1.00 m
Form Hept Cyl
Hersteller SSTL
Bus-Typ SSTL-150
Phasenstatus In Orbit
Besitzer/Staat REYE/D

Most Searched